Regional Weather Roundup
Issued by NWS Dallas/Fort Worth, TX

Home | Current Version | Previous Version | Text Only | Print | Product List | Glossary On
Versions: 1 2 3 4 5 6 7 8 9 10 11 12 13 14 15 16 17 18 19 20 21 22 23 24 25 26 27 28 29 30 31 32 33 34 35 36 37 38 39 40 41 42 43 44 45 46 47 48 49 50
770
ASUS44 KFWD 200715
RWRFWD
NORTH TEXAS HOURLY WEATHER ROUNDUP
NATIONAL WEATHER SERVICE FORT WORTH TX
100 AM CST WED NOV 20 2019

NOTE: "FAIR" INDICATES FEW OR NO CLOUDS BELOW 12,000 FEET WITH NO
SIGNIFICANT WEATHER AND/OR OBSTRUCTIONS TO VISIBILITY.

TXZ118-119-200800-
DALLAS/FORT WORTH METROPLEX

CITY           SKY/WX    TMP DP  RH WIND       PRES   REMARKS
DFW AIRPORT    MOCLDY    63  51  65 S10       29.92S
DALLAS LOVE    PTCLDY    63  49  60 S12       29.94S
FTW MEACHAM    CLEAR     60  52  74 S10       29.92S
DAL-EXECUTIVE  CLEAR     61  49  64 S10       29.93S
FTW-ALLIANCE   PTCLDY    62  51  67 S13       29.92S
FTW-SPINKS     CLEAR     61  52  72 S7        29.95R
ARLINGTON      CLEAR     63  52  67 S10       29.93S
GRAND PRAIRIE  CLEAR     63  50  64 SE9       29.95R
ADDISON        CLEAR     63  50  63 S8        29.96R
MESQUITE       CLEAR     58  49  70 SE8       29.96S
LANCASTER      CLEAR     59  50  71 S7        29.96S
$$

TXZ091>094-102>105-117-120-121-131>134-200800-
NORTH CENTRAL TEXAS

CITY           SKY/WX    TMP DP  RH WIND       PRES   REMARKS
SHRMAN/DENISON CLEAR     62  49  63 S14       29.95S
GAINESVILLE    CLEAR     54  47  76 S5        29.94S
BOWIE          CLEAR     64  54  69 S9        29.90S
BRIDGEPORT     CLEAR     60  51  71 CALM      29.93S
DECATUR        CLEAR     61  51  68 S10       29.91S
DENTON         CLEAR     61  50  67 SE8       29.93R
MCKINNEY       CLEAR     51  45  79 S7        29.95R
BONHAM         CLEAR     58  48  68 S8        29.95S
GREENVILLE     CLEAR     55  48  76 CALM      29.97S
ROCKWALL       CLEAR     60  50  69 S12       29.96S
TERRELL        CLEAR     58  50  75 S6        29.97R
WAXAHACHIE     CLEAR     58  51  78 SE5       29.96S
CLEBURNE       CLEAR     59  54  82 S13       29.95R
GRANBURY       CLEAR     60  52  73 E8        29.92F
$$

TXZ083>090-098>101-113>116-127>130-139>142-154-155-200800-
WESTERN NORTH TEXAS

CITY           SKY/WX    TMP DP  RH WIND       PRES   REMARKS
WICHITA FALLS  CLEAR     59  49  69 S14       29.85S
WF-KICKAPOO    CLEAR     57  48  70 SE10      29.88S
VERNON         CLEAR     58  46  63 S10       29.83S
ABILENE        CLEAR     62  51  67 S13       29.87S
ABILENE-DYESS  CLEAR     63  48  58 S17       29.84F
GRAHAM         CLEAR     59  52  77 SE5       29.87S
CISCO          CLEAR     61  52  72 S15       29.89S
EASTLAND       CLEAR     55  49  81 SE5       29.90R
RANGER         CLEAR     60  52  75 S10G16    29.90S
MINERAL WELLS  CLEAR     55  49  80 SE12      29.89S
STEPHENVILLE   CLEAR     59  51  74 S9        29.94S
COMANCHE       CLEAR     58  53  84 SE9       29.91S
BROWNWOOD      PTCLDY    57  54  88 SE7       29.91S
COLEMAN        CLEAR     56  49  77 S3        29.91R
BRADY          CLEAR     59  52  77 S9        29.91R
$$

TXZ143>147-156>162-174-175-200800-
CENTRAL TEXAS

CITY           SKY/WX    TMP DP  RH WIND       PRES   REMARKS
WACO           CLEAR     61  56  83 S13       29.95S
WACO-MCGREGOR  PTCLDY    60  56  86 S14       29.95S
HILLSBORO      CLEAR     60  55  82 SE13      29.95R
CORSICANA      CLEAR     55  50  83 S8        29.98S
MEXIA          CLEAR     58  52  83 S9        29.97S
HEARNE         CLEAR     60  57  90 SE5       29.98F
CAMERON        PTCLDY    63  59  89 SE8       29.96S
TEMPLE         MOCLDY    61  61 100 S14       29.95F
KILLEEN        CLOUDY    63  59  88 SE18      29.92F
KILLEEN-SKYLRK CLOUDY    61  57  87 S10       29.95S
FORT HOOD      CLOUDY    61  57  87 S13       29.94S
GATESVILLE     PTCLDY    61  57  88 SE12      29.95F
HAMILTON       CLEAR     60  55  84 S13       29.94R
LAMPASAS       CLOUDY    63  59  86 S12G24    29.92F
$$

TXZ095>097-106>112-122>126-135>138-148>153-164>167-200800-
EAST TEXAS

CITY           SKY/WX    TMP DP  RH WIND       PRES   REMARKS
PARIS          CLEAR     51  44  77 SE7       29.98
SULPHUR SPRNGS CLEAR     59  48  66 SE7       29.99S
MOUNT PLEASANT CLEAR     55  46  73 CALM      30.01R
GILMER         CLEAR     58  49  71 S5        30.00S
MINEOLA        CLEAR     59  50  72 S6        29.99R
TYLER          CLEAR     57  49  74 S9        29.99R
LONGVIEW       CLEAR     53  48  83 CALM      30.00R
MARSHALL       CLEAR     46  44  91 CALM      30.03S
ATHENS         CLEAR     59  52  77 S9        29.98S
PALESTINE      CLEAR     58  54  85 SE5       30.01S
JACKSONVILLE   CLEAR     57  52  82 S9        30.02S
HENDERSON      CLEAR     52  48  84 CALM      30.02R
CENTER         SUNNY     47  46  95 CALM      30.03
NACOGDOCHES    CLEAR     49  49 100 CALM      30.03S
LUFKIN         CLEAR     52  50  93 SE3       30.02S FOG
$$

SUPPLEMENTAL OBSERVATIONS (NWS FORT WORTH AREA)

CITY           SKY/WX    TMP DP  RH WIND       PRES   REMARKS
CADDO GRASSLND   N/A     57  45  62 S6          N/A
LBJ GRASSLAND    N/A     61  50  67 SE8         N/A
POSSUM KINGDOM   N/A     61  50  67 SE8         N/A
GRANBURY         N/A     59  52  77 E7          N/A
COMANCHE         N/A     57  50  77 SE10        N/A
MCGREGOR         N/A     57  52  82 S7G16       N/A
TEMPLE           N/A     61  55  82 S7          N/A
LAKE LIMESTONE   N/A     55  52  88 SE5         N/A
PALESTINE        N/A     59  54  82 S5          N/A
$$

SUPPLEMENTAL OBSERVATIONS (NWS NORMAN AREA)

CITY           SKY/WX    TMP DP  RH WIND       PRES   REMARKS
GOODLETT         N/A     59  44  57 S13       29.78
ODELL            N/A     57  45  65 SE14      29.81
CROWELL          N/A     60  46  61 S10       29.81
KNOX CITY        N/A     58  47  67 S10       29.82
SEYMOUR          N/A     58  47  68 SE10      29.83
MILLERS CREEK    N/A     57  46  67 S15         N/A
$$

SUPPLEMENTAL OBSERVATIONS (NWS SAN ANGELO AREA)

CITY           SKY/WX    TMP DP  RH WIND       PRES   REMARKS
WEINERT          N/A     59  47  63 S13       29.83
HASKELL          N/A     59  47  64 SE8       29.83
THROCKMORTON     N/A     56  49  78 SE7       29.86
STAMFORD         N/A     59  50  72 S9        29.85
CLYDE            N/A     58  50  76 S17       29.88
HAMBY            N/A     61  50  67 S14G23      N/A
IVIE RESERVOIR   N/A     63  54  72 SE7         N/A
COLORADO BEND    N/A     61  55  82 S12G24      N/A
$$

SUPPLEMENTAL OBSERVATIONS (NWS SHREVEPORT AREA)

CITY           SKY/WX    TMP DP  RH WIND       PRES   REMARKS
TEXARKANA        N/A     43  41  93 CALM        N/A
LINDEN           N/A     46  43  87 CALM        N/A
CADDO LAKE       N/A     43  41  93 CALM        N/A
LUFKIN           N/A     48  45  87 MISG        N/A
N SABINE NF      N/A     50  45  81 MISG        N/A
$$

SUPPLEMENTAL OBSERVATIONS ARE A COLLECTION OF AUTOMATED INSTRUMENTS
THAT ARE MAINTAINED BY A VARIETY OF FEDERAL AND STATE AGENCIES.
CERTAIN ELEMENTS...SUCH AS HUMIDITY VALUES AND SUSTAINED WIND
SPEEDS...MAY BE APPROXIMATED.





USA.gov is the U.S. government's official web portal to all federal, state and local government web resources and services.